TimeCDT,TemperatureF,Dew PointF,Humidity,Sea Level PressureIn,VisibilityMPH,Wind Direction,Wind SpeedMPH,Gust SpeedMPH,PrecipitationIn,Events,Conditions,WindDirDegrees,DateUTC
12:15 AM,77.4,68.9,75,29.64,7.0,SSE,21.9,32.2,N/A,,Overcast,160,2013-04-10 05:15:00
12:35 AM,77.4,68.9,75,29.64,7.0,SSE,21.9,31.1,N/A,,Overcast,160,2013-04-10 05:35:00
12:55 AM,77.4,68.9,75,29.63,7.0,SSE,23.0,29.9,N/A,,Overcast,160,2013-04-10 05:55:00
1:15 AM,77.2,68.9,76,29.63,10.0,SSE,20.7,32.2,N/A,,Overcast,160,2013-04-10 06:15:00
1:35 AM,77.0,68.5,75,29.62,10.0,SSE,19.6,32.2,N/A,,Overcast,150,2013-04-10 06:35:00
1:55 AM,76.3,68.4,76,29.61,7.0,SE,17.3,33.4,N/A,,Overcast,140,2013-04-10 06:55:00
2:15 AM,75.7,68.5,78,29.62,7.0,SSE,18.4,25.3,N/A,,Overcast,160,2013-04-10 07:15:00
2:35 AM,75.9,68.9,79,29.62,7.0,SSE,15.0,26.5,N/A,,Overcast,150,2013-04-10 07:35:00
2:55 AM,75.7,68.9,79,29.62,7.0,SSE,18.4,23.0,N/A,,Overcast,150,2013-04-10 07:55:00
3:15 AM,75.4,68.9,80,29.61,7.0,SSE,18.4,24.2,N/A,,Overcast,150,2013-04-10 08:15:00
3:35 AM,75.2,68.9,81,29.60,7.0,SSE,15.0,23.0,N/A,,Mostly Cloudy,150,2013-04-10 08:35:00
3:55 AM,74.8,68.9,82,29.59,7.0,SSE,15.0,21.9,N/A,,Overcast,150,2013-04-10 08:55:00
4:15 AM,74.7,68.9,82,29.59,7.0,SSE,17.3,23.0,N/A,,Mostly Cloudy,160,2013-04-10 09:15:00
4:35 AM,74.5,68.9,83,29.58,7.0,SSE,15.0,21.9,N/A,,Mostly Cloudy,150,2013-04-10 09:35:00
4:55 AM,74.5,68.9,83,29.58,7.0,SSE,17.3,21.9,N/A,,Mostly Cloudy,150,2013-04-10 09:55:00
5:15 AM,74.3,68.7,83,29.58,7.0,SSE,16.1,21.9,N/A,,Overcast,150,2013-04-10 10:15:00
5:35 AM,74.5,68.9,83,29.58,7.0,SSE,15.0,20.7,N/A,,Overcast,150,2013-04-10 10:35:00
5:55 AM,74.7,68.9,82,29.59,7.0,SSE,12.7,21.9,N/A,,Overcast,150,2013-04-10 10:55:00
6:15 AM,74.8,68.9,82,29.59,7.0,SSE,15.0,21.9,N/A,,Overcast,160,2013-04-10 11:15:00
6:35 AM,74.8,68.9,82,29.60,7.0,SSE,17.3,21.9,N/A,,Overcast,160,2013-04-10 11:35:00
6:55 AM,75.2,69.1,81,29.60,7.0,SSE,15.0,24.2,N/A,,Overcast,160,2013-04-10 11:55:00
7:15 AM,75.4,69.1,81,29.62,7.0,SSE,15.0,27.6,N/A,,Overcast,160,2013-04-10 12:15:00
7:35 AM,75.4,68.9,80,29.62,7.0,South,21.9,28.8,N/A,,Overcast,170,2013-04-10 12:35:00
7:55 AM,75.2,68.9,81,29.63,7.0,South,18.4,25.3,N/A,,Mostly Cloudy,180,2013-04-10 12:55:00
8:15 AM,76.1,69.1,79,29.64,7.0,South,11.5,-,N/A,,Overcast,180,2013-04-10 13:15:00
8:35 AM,77.0,69.1,76,29.65,7.0,South,12.7,18.4,N/A,,Overcast,180,2013-04-10 13:35:00
8:55 AM,79.2,69.3,72,29.64,10.0,South,15.0,25.3,N/A,,Mostly Cloudy,170,2013-04-10 13:55:00
9:15 AM,79.7,69.1,70,29.65,10.0,South,12.7,25.3,N/A,,Mostly Cloudy,180,2013-04-10 14:15:00
9:35 AM,79.7,69.1,70,29.65,7.0,South,18.4,31.1,N/A,,Overcast,180,2013-04-10 14:35:00
9:55 AM,80.4,69.3,69,29.65,10.0,South,17.3,29.9,N/A,,Overcast,190,2013-04-10 14:55:00
10:15 AM,83.3,69.3,62,29.65,10.0,South,20.7,28.8,N/A,,Scattered Clouds,190,2013-04-10 15:15:00
10:35 AM,84.6,69.4,60,29.65,7.0,South,17.3,24.2,N/A,,Clear,170,2013-04-10 15:35:00
10:55 AM,85.1,69.3,59,29.66,10.0,South,15.0,26.5,N/A,,Clear,170,2013-04-10 15:55:00
11:15 AM,86.4,69.1,56,29.69,10.0,SW,12.7,19.6,N/A,,Mostly Cloudy,220,2013-04-10 16:15:00
11:35 AM,84.9,69.1,59,29.70,10.0,SW,12.7,18.4,N/A,,Overcast,230,2013-04-10 16:35:00
12:15 PM,87.4,68.5,53,29.69,7.0,West,4.6,-,N/A,,Mostly Cloudy,260,2013-04-10 17:15:00
12:35 PM,89.1,69.1,52,29.69,7.0,NW,10.4,-,N/A,,Mostly Cloudy,310,2013-04-10 17:35:00
12:55 PM,89.4,67.5,48,29.68,7.0,WNW,10.4,-,N/A,,Scattered Clouds,300,2013-04-10 17:55:00
1:15 PM,92.3,65.8,42,29.68,7.0,NW,12.7,19.6,N/A,,Scattered Clouds,320,2013-04-10 18:15:00
1:35 PM,89.8,65.8,45,29.67,5.0,NNW,10.4,-,N/A,,Haze,330,2013-04-10 18:35:00
1:55 PM,92.3,64.2,39,29.67,7.0,NNW,6.9,-,N/A,,Scattered Clouds,340,2013-04-10 18:55:00
2:15 PM,92.7,63.0,37,29.67,7.0,NNW,3.5,16.1,N/A,,Scattered Clouds,340,2013-04-10 19:15:00
2:35 PM,91.8,62.4,37,29.65,7.0,NW,10.4,-,N/A,,Mostly Cloudy,320,2013-04-10 19:35:00
2:55 PM,92.3,63.0,38,29.65,7.0,NW,8.1,-,N/A,,Scattered Clouds,310,2013-04-10 19:55:00
3:15 PM,93.4,61.3,34,29.63,5.0,NNE,5.8,-,N/A,,Haze,20,2013-04-10 20:15:00
3:35 PM,94.3,59.9,32,29.62,7.0,NNW,5.8,-,N/A,,Scattered Clouds,330,2013-04-10 20:35:00
3:55 PM,95.2,59.4,30,29.62,7.0,North,9.2,-,N/A,,Scattered Clouds,10,2013-04-10 20:55:00
4:15 PM,93.2,59.7,33,29.60,7.0,NNE,10.4,16.1,N/A,,Scattered Clouds,20,2013-04-10 21:15:00
4:35 PM,94.5,57.7,29,29.60,7.0,North,15.0,21.9,N/A,,Scattered Clouds,360,2013-04-10 21:35:00
4:55 PM,93.9,54.3,26,29.60,7.0,North,15.0,25.3,N/A,,Scattered Clouds,350,2013-04-10 21:55:00
5:15 PM,93.0,53.6,26,29.60,7.0,North,11.5,24.2,N/A,,Clear,350,2013-04-10 22:15:00
5:35 PM,93.0,54.9,27,29.60,10.0,NNE,24.2,33.4,N/A,,Scattered Clouds,20,2013-04-10 22:35:00
5:55 PM,86.0,52.7,32,29.61,7.0,NNE,20.7,29.9,N/A,,Scattered Clouds,20,2013-04-10 22:55:00
6:15 PM,83.5,52.5,34,29.62,7.0,NNE,19.6,29.9,N/A,,Clear,30,2013-04-10 23:15:00
6:35 PM,80.2,52.7,38,29.63,7.0,NNE,23.0,31.1,N/A,,Clear,30,2013-04-10 23:35:00
6:55 PM,76.6,54.7,46,29.65,10.0,North,16.1,26.5,N/A,,Clear,10,2013-04-10 23:55:00
7:15 PM,73.8,53.6,49,29.67,10.0,NNE,16.1,23.0,N/A,,Clear,20,2013-04-11 00:15:00
7:35 PM,71.4,52.7,52,29.68,10.0,North,16.1,26.5,N/A,,Mostly Cloudy,10,2013-04-11 00:35:00
7:55 PM,69.8,52.2,53,29.69,10.0,North,12.7,21.9,N/A,,Overcast,360,2013-04-11 00:55:00
8:15 PM,67.5,51.4,56,29.70,10.0,North,13.8,20.7,N/A,,Overcast,360,2013-04-11 01:15:00
8:35 PM,66.7,52.0,59,29.72,10.0,North,17.3,26.5,N/A,,Overcast,360,2013-04-11 01:35:00
8:55 PM,65.5,52.3,62,29.73,10.0,North,16.1,21.9,N/A,,Overcast,10,2013-04-11 01:55:00
9:15 PM,64.6,52.9,66,29.74,10.0,North,12.7,21.9,N/A,,Overcast,10,2013-04-11 02:15:00
9:35 PM,63.9,53.1,68,29.75,10.0,North,15.0,20.7,N/A,,Overcast,360,2013-04-11 02:35:00
9:55 PM,63.5,53.6,70,29.76,10.0,North,12.7,17.3,N/A,,Overcast,360,2013-04-11 02:55:00
10:15 PM,62.8,53.8,72,29.76,10.0,North,11.5,19.6,N/A,,Overcast,360,2013-04-11 03:15:00
10:35 PM,62.6,53.8,73,29.77,10.0,North,12.7,-,N/A,,Overcast,10,2013-04-11 03:35:00
10:55 PM,62.4,53.8,73,29.78,10.0,NNE,12.7,-,N/A,,Overcast,20,2013-04-11 03:55:00
11:15 PM,61.7,54.0,76,29.78,10.0,North,13.8,17.3,N/A,,Overcast,10,2013-04-11 04:15:00
11:35 PM,61.3,53.6,76,29.79,10.0,North,13.8,23.0,N/A,,Overcast,10,2013-04-11 04:35:00
11:55 PM,61.3,52.9,74,29.80,10.0,North,15.0,19.6,N/A,,Overcast,360,2013-04-11 04:55:00